CW4489 Marathon FL US current weather conditions

sailwx.info

Wind from 283 at 4 knots gusting 6

Air temperature 26.7° C
Dewpoint 23.3° C

Last reported at 2015-Feb-26 22:50 UTC.
Time now 2015-Feb-26 23:24 UTC

Location: N 24°44' W 081°02'.
View on Google Maps.

See reports from other nearby stations

  
Tides and Currents Weather Stations Pressure Air Temp Water Temp Dewpoint Dewpoint Depression Visibility Wind Speed Wind Dir Waves Ship Positions
date/time (UTC)wind fromknots sea level pressurealtimeterstation pressurevisibilityair tempwater tempwave heightnotes
2015-Feb-26 22:50 283 4 gusting 6 26.7
2015-Feb-26 22:40 332 1 gusting 4 27.2
2015-Feb-26 22:30 333 27.8
2015-Feb-26 22:20 209 1 gusting 6 27.8
2015-Feb-26 22:10 216 2 gusting 4 27.8
2015-Feb-26 22:00 225 2 gusting 4 27.8
2015-Feb-26 21:50 247 2 gusting 4 27.8
2015-Feb-26 21:40 217 2 gusting 4 27.8
2015-Feb-26 21:30 198 1 gusting 4 27.8
2015-Feb-26 21:10 223 4 gusting 5 28.3
2015-Feb-26 20:50 200 2 gusting 4 28.3
2015-Feb-26 20:40 186 2 gusting 6 28.3
2015-Feb-26 20:20 206 2 gusting 6 28.3
2015-Feb-26 20:10 214 4 gusting 6 27.8
2015-Feb-26 20:00 211 2 gusting 6 27.8
2015-Feb-26 19:50 184 3 gusting 8 27.8
2015-Feb-26 19:30 164 5 gusting 6 27.8
2015-Feb-26 19:20 186 6 gusting 8 27.8
2015-Feb-26 19:10 190 6 gusting 8 27.8
2015-Feb-26 19:00 214 6 gusting 7 27.8
2015-Feb-26 18:50 183 3 gusting 7 27.8
2015-Feb-26 18:40 167 5 gusting 8 27.2
2015-Feb-26 18:20 219 6 gusting 8 27.2
2015-Feb-26 17:40 207 6 gusting 9 27.2
2015-Feb-26 17:30 188 7 gusting 11 26.7
2015-Feb-26 17:20 225 7 gusting 10 26.7
2015-Feb-26 17:10 184 7 gusting 10 26.7
2015-Feb-26 17:00 170 6 gusting 12 26.7
2015-Feb-26 16:50 203 6 gusting 11 27.2
2015-Feb-26 16:40 212 5 gusting 9 27.2
2015-Feb-26 16:10 184 6 gusting 8 27.2
2015-Feb-26 16:00 207 5 gusting 8 26.7
2015-Feb-26 15:50 187 4 gusting 8 26.7
2015-Feb-26 15:40 198 6 gusting 8 26.7
2015-Feb-26 15:20 186 8 gusting 9 26.7
2015-Feb-26 15:10 211 5 gusting 8 26.1
2015-Feb-26 14:50 225 4 gusting 9 25.6
2015-Feb-26 14:40 182 5 gusting 7 25.6
2015-Feb-26 14:30 201 5 gusting 8 25.6
2015-Feb-26 14:20 199 2 gusting 8 25.0
2015-Feb-26 14:10 246 4 gusting 8 25.0
2015-Feb-26 14:00 197 8 gusting 8 24.4
2015-Feb-26 13:50 200 3 gusting 7 24.4
2015-Feb-26 13:40 186 5 gusting 7 24.4
2015-Feb-26 13:10 205 6 gusting 8 23.9
2015-Feb-26 13:00 194 3 gusting 9 23.9
2015-Feb-26 12:50 197 5 gusting 6 23.9
2015-Feb-26 12:40 193 5 gusting 8 23.9
2015-Feb-26 12:30 213 4 gusting 8 23.9
2015-Feb-26 12:10 203 6 gusting 8 23.9
2015-Feb-26 12:00 219 7 gusting 8 23.9
2015-Feb-26 11:40 215 6 gusting 12 23.9
2015-Feb-26 11:30 198 7 gusting 11 23.9
2015-Feb-26 11:20 223 9 gusting 9 23.9
2015-Feb-26 11:10 143 6 gusting 10 23.9
2015-Feb-26 11:00 213 5 gusting 8 23.9
2015-Feb-26 10:30 209 5 gusting 8 23.9
2015-Feb-26 10:20 202 6 gusting 8 23.9
2015-Feb-26 10:10 236 8 gusting 8 23.9
2015-Feb-26 10:00 209 6 gusting 8 23.9
2015-Feb-26 09:50 245 6 gusting 9 23.9
2015-Feb-26 09:40 211 5 gusting 10 23.9
2015-Feb-26 09:30 213 5 gusting 9 23.9
2015-Feb-26 09:20 227 6 gusting 10 23.9
2015-Feb-26 09:10 234 7 gusting 11 23.9
2015-Feb-26 08:50 202 6 gusting 10 23.9
2015-Feb-26 08:40 224 5 gusting 12 23.9
2015-Feb-26 08:20 197 5 gusting 10 23.9
2015-Feb-26 08:10 213 6 gusting 10 23.9
2015-Feb-26 07:50 224 6 gusting 10 23.9
2015-Feb-26 07:20 196 5 gusting 9 23.9
2015-Feb-26 07:10 217 8 gusting 9 23.9
2015-Feb-26 06:50 198 6 gusting 12 23.9
2015-Feb-26 06:40 207 8 gusting 13 23.9
2015-Feb-26 06:30 179 6 gusting 13 23.9
2015-Feb-26 06:20 217 10 gusting 11 23.9
2015-Feb-26 06:00 200 5 gusting 11 23.9
2015-Feb-26 05:40 217 6 gusting 8 23.9
2015-Feb-26 05:30 219 8 gusting 8 23.9
2015-Feb-26 05:20 203 8 gusting 8 23.9
2015-Feb-26 05:00 190 6 gusting 7 23.9
2015-Feb-26 04:50 186 2 gusting 6 23.9
2015-Feb-26 04:40 165 1 gusting 3 23.9
2015-Feb-26 04:30 166 2 gusting 5 23.9
2015-Feb-26 04:10 127 3 gusting 7 23.9
2015-Feb-26 04:00 190 4 gusting 7 23.9
2015-Feb-26 03:50 182 5 gusting 6 23.9
2015-Feb-26 03:40 163 2 gusting 6 23.9
2015-Feb-26 03:30 178 4 gusting 6 23.9
2015-Feb-26 03:20 150 4 gusting 6 24.4
2015-Feb-26 02:40 186 3 gusting 6 24.4
2015-Feb-26 02:30 220 3 gusting 6 24.4
2015-Feb-26 02:20 171 2 gusting 7 24.4
2015-Feb-26 02:10 142 0 gusting 5 24.4
2015-Feb-26 01:50 155 2 gusting 6 24.4
2015-Feb-26 01:40 153 3 gusting 6 24.4
2015-Feb-26 01:20 150 2 gusting 5 24.4
2015-Feb-26 01:10 157 3 gusting 6 24.4
2015-Feb-26 01:00 133 3 gusting 8 24.4
2015-Feb-26 00:20 151 4 gusting 6 24.4
2015-Feb-26 00:00 135 5 gusting 6 24.4
2015-Feb-25 23:40 144 4 gusting 6 24.4
2015-Feb-25 23:10 109 2 gusting 6 25.0
2015-Feb-25 23:00 146 6 gusting 6 25.0
2015-Feb-25 22:30 142 3 gusting 6 25.6
2015-Feb-25 22:20 117 6 gusting 6 26.1
2015-Feb-25 22:10 139 3 gusting 6 26.1
2015-Feb-25 22:00 140 4 gusting 6 26.1
2015-Feb-25 21:39 124 3 gusting 5 26.7
2015-Feb-25 21:30 158 2 gusting 6 26.7
2015-Feb-25 21:20 162 6 gusting 6 26.7
2015-Feb-25 21:10 143 3 gusting 6 26.7
2015-Feb-25 21:00 134 2 gusting 4 26.7
2015-Feb-25 20:49 163 2 gusting 6 26.7
2015-Feb-25 20:39 168 3 gusting 4 26.7
2015-Feb-25 20:20 140 0 gusting 4 27.2
2015-Feb-25 20:09 165 2 gusting 3 27.2
2015-Feb-25 20:00 169 2 gusting 4 27.2
2015-Feb-25 19:50 229 4 gusting 4 27.2
2015-Feb-25 19:40 158 3 gusting 5 27.2
2015-Feb-25 19:29 144 2 gusting 2 27.2
2015-Feb-25 19:10 161 1 gusting 5 27.2
2015-Feb-25 18:59 138 2 gusting 5 27.2
2015-Feb-25 18:40 169 2 gusting 5 27.8
2015-Feb-25 18:19 192 1 gusting 2 27.2
2015-Feb-25 18:10 179 0 gusting 2 27.2
2015-Feb-25 17:49 161 1 gusting 3 26.1
2015-Feb-25 17:29 182 1 gusting 2 25.6
2015-Feb-25 17:19 202 2 gusting 2 25.0
2015-Feb-25 16:59 193 1 gusting 2 23.9
2015-Feb-25 16:39 204 1 gusting 2 23.3
2015-Feb-25 16:30 188 1 gusting 2 23.3
2015-Feb-25 16:09 188 1 gusting 2 23.3
2015-Feb-25 16:00 188 2 gusting 2 22.8
2015-Feb-25 15:49 188 1 gusting 2 23.3
2015-Feb-25 15:40 188 1 gusting 1 22.8
2015-Feb-25 15:09 162 1 gusting 2 22.2
2015-Feb-25 15:00 159 0 gusting 2 22.2
2015-Feb-25 14:29 093 21.7
2015-Feb-25 14:19 092 22.2
2015-Feb-25 14:09 092 0 gusting 1 21.7
2015-Feb-25 13:59 092 21.7
2015-Feb-25 13:49 092 21.1
2015-Feb-25 13:39 092 21.1
2015-Feb-25 13:29 092 21.1
2015-Feb-25 13:19 092 21.1
2015-Feb-25 13:09 092 20.6
2015-Feb-25 12:59 092 20.0
2015-Feb-25 12:49 092 20.0
2015-Feb-25 12:39 092 19.4
2015-Feb-25 11:49 005 18.3
2015-Feb-25 11:19 005 18.3
2015-Feb-25 11:09 005 18.3
2015-Feb-25 10:49 005 18.3
2015-Feb-25 10:39 005 18.3
2015-Feb-25 10:29 005 18.3
2015-Feb-25 10:19 005 18.3
2015-Feb-25 10:09 005 18.3
2015-Feb-25 09:39 005 17.8
2015-Feb-25 09:29 005 17.8
2015-Feb-25 09:09 005 17.8
2015-Feb-25 08:59 005 18.3
2015-Feb-25 08:39 005 18.3
2015-Feb-25 08:29 005 18.3
2015-Feb-25 08:19 005 18.3
2015-Feb-25 08:09 005 18.3
2015-Feb-25 07:59 005 18.3
2015-Feb-25 07:49 005 18.3
2015-Feb-25 07:39 005 18.3
2015-Feb-25 07:19 005 18.3
2015-Feb-25 07:09 005 18.3
2015-Feb-25 06:19 005 18.3
2015-Feb-25 06:09 005 18.3
2015-Feb-25 05:59 005 18.3
2015-Feb-25 05:39 005 18.3
2015-Feb-25 05:09 355 2 gusting 3 18.3
2015-Feb-25 04:59 344 1 gusting 2 18.3
2015-Feb-25 04:49 355 3 gusting 3 18.9
2015-Feb-25 04:39 011 2 gusting 3 18.9
2015-Feb-25 04:29 338 1 gusting 4 18.9
2015-Feb-25 04:09 348 1 gusting 3 18.9
2015-Feb-25 03:59 014 2 gusting 6 18.9
2015-Feb-25 03:49 350 3 gusting 5 19.4
2015-Feb-25 03:39 023 0 gusting 6 20.0
2015-Feb-25 03:29 344 3 gusting 6 20.0
2015-Feb-25 03:09 015 20.0
2015-Feb-25 02:59 015 0 gusting 0 20.0
2015-Feb-25 02:49 015 1 gusting 2 20.0
2015-Feb-25 02:39 015 2 gusting 2 20.0
2015-Feb-25 02:29 011 1 gusting 1 20.0
2015-Feb-25 02:19 011 0 gusting 2 20.0
2015-Feb-25 02:09 011 0 gusting 1 20.0
2015-Feb-25 01:09 011 1 gusting 2 20.6
2015-Feb-25 00:59 011 0 gusting 2 20.6
2015-Feb-25 00:49 005 2 gusting 2 21.1
2015-Feb-25 00:39 005 1 gusting 2 21.1
2015-Feb-25 00:19 284 21.7
2015-Feb-25 00:09 275 21.7
2015-Feb-24 23:59 275 22.2
2015-Feb-24 23:49 234 22.2
2015-Feb-24 23:29 234 22.8
2015-Feb-24 23:19 234 23.3
2015-Feb-24 23:09 234 23.3